Location: Unspecified
(29.9680°N, 0.0000°E)
Time: 14:20:41
(UTC+00:00)

Explorer 7 - Pass Details

Date: 03 July 2019
Orbit: 485 x 680 km, 50.3° (Epoch: 16 July)

Event Time Altitude Azimuth Distance (km) Brightness Sun altitude
Rises 12:59:47 0° 290° (WNW) 2,942 10.7 75.7°
Reaches altitude 10° 13:03:06 10° 266° (W) 2,062 10.1 75.1°
Maximum altitude 13:05:35 14° 235° (SW) 1,814 9.9 74.6°
Drops below altitude 10° 13:08:06 10° 203° (SSW) 2,092 10.1 74.1°
Sets 13:11:31 0° 179° (S) 3,014 10.7 73.4°
